Temp
-7 -7 -7 -7 -7 -7 -7 -7 -7 -7 -7 -7 -7 -7 -7 -7 -7 -7 -6 -6 -6 -6 -6 -7 -7 -7 -7 -7 -7 -7 -7 -7 -7 -7 -7 -7 -7 -8 -8 -8 -8 -8 -8 -8 -8 -8 -8 -8 -8 -8 -8 -8 -8 -8 -8 -8 -8 -8 -8 -8 -8 -8 -8
-6 -7 -7 -7 -7 -7 -7 -7 -7 -7 -7 -7 -7 -7 -7 -7 -7 -7 -7 -6 -6 -6 -6 -7 -7 -7 -7 -7 -7 -7 -7 -7 -7 -7 -8 -8 -8 -8 -8 -8 -8 -8 -8 -8 -8 -8 -8 -8 -8 -8 -8 -8 -8 -8 -8 -8 -8 -8 -8 -8 -8 -8 -8
-6 -7 -7 -7 -7 -7 -7 -7 -7 -8 -8 -8 -7 -7 -7 -7 -7 -7 -7 -6 -6 -6 -7 -7 -7 -7 -7 -7 -7 -7 -7 -7 -7 -8 -8 -8 -8 -8 -8 -8 -8 -8 -8 -8 -8 -8 -8 -8 -8 -8 -8 -8 -8 -8 -8 -8 -8 -8 -8 -8 -8 -8 -8
-7 -7 -7 -7 -7 -7 -7 -7 -7 -7 -8 -7 -7 -7 -7 -7 -7 -7 -7 -7 -7 -7 -7 -7 -7 -7 -7 -7 -7 -7 -7 -7 -7 -8 -8 -8 -8 -8 -8 -8 -8 -8 -8 -8 -8 -8 -9 -8 -8 -8 -8 -8 -8 -8 -8 -8 -8 -8 -8 -8 -8 -8 -8
-7 -7 -7 -7 -7 -7 -7 -7 -7 -7 -7 -7 -7 -7 -7 -7 -7 -7 -7 -7 -7 -7 -7 -7 -7 -7 -7 -7 -7 -7 -7 -7 -8 -8 -8 -8 -8 -8 -8 -8 -8 -8 -8 -8 -8 -8 -9 -9 -8 -8 -8 -8 -8 -8 -9 -9 -9 -8 -8 -8 -8 -8 -8
-7 -7 -7 -7 -7 -7 -7 -7 -8 -8 -8 -8 -7 -7 -7 -7 -7 -7 -7 -7 -7 -7 -7 -7 -7 -7 -7 -7 -7 -7 -8 -8 -8 -8 -8 -8 -8 -8 -8 -8 -8 -9 -9 -9 -9 -9 -9 -9 -9 -8 -8 -8 -8 -8 -9 -9 -9 -9 -9 -9 -9 -9 -8
-7 -7 -7 -7 -7 -7 -7 -7 -8 -8 -8 -8 -7 -7 -7 -7 -7 -7 -7 -7 -7 -7 -7 -7 -7 -7 -7 -7 -7 -8 -8 -8 -8 -8 -8 -8 -8 -8 -9 -9 -9 -9 -9 -9 -9 -9 -9 -9 -9 -9 -8 -8 -8 -8 -9 -9 -9 -9 -9 -9 -9 -9 -9
-7 -7 -7 -7 -7 -7 -7 -7 -8 -8 -8 -8 -7 -7 -7 -7 -7 -7 -7 -7 -7 -7 -7 -7 -7 -7 -7 -7 -8 -8 -8 -8 -8 -8 -8 -8 -8 -9 -9 -9 -9 -9 -9 -9 -9 -9 -9 -9 -9 -9 -8 -8 -8 -9 -9 -9 -9 -9 -9 -9 -9 -9 -9
-7 -7 -7 -7 -7 -7 -7 -7 -8 -8 -8 -8 -7 -7 -7 -7 -7 -7 -7 -7 -7 -7 -7 -7 -7 -7 -7 -7 -8 -8 -8 -8 -8 -8 -8 -8 -9 -9 -9 -9 -8 -9 -9 -9 -9 -9 -9 -9 -9 -9 -9 -9 -9 -9 -9 -9 -9 -9 -9 -9 -9 -9 -9
-7 -7 -7 -7 -7 -7 -7 -7 -7 -8 -8 -8 -7 -7 -7 -7 -7 -7 -7 -7 -7 -7 -7 -7 -7 -7 -7 -8 -7 -8 -8 -8 -8 -8 -8 -8 -8 -9 -9 -9 -8 -9 -9 -9 -9 -9 -9 -9 -9 -9 -9 -9 -9 -9 -9 -9 -9 -9 -9 -9 -9 -9 -9
-7 -7 -7 -7 -7 -7 -7 -7 -7 -8 -8 -8 -7 -7 -7 -7 -7 -7 -7 -7 -7 -7 -7 -7 -7 -7 -7 -8 -8 -7 -8 -7 -8 -8 -8 -8 -8 -9 -9 -9 -9 -9 -9 -9 -9 -9 -9 -9 -9 -9 -9 -9 -9 -9 -10 -10 -9 -9 -9 -10 -10 -9 -9
-7 -7 -7 -7 -7 -7 -7 -7 -8 -8 -8 -8 -7 -7 -7 -7 -7 -7 -7 -7 -7 -8 -8 -7 -8 -8 -8 -8 -8 -7 -8 -8 -8 -9 -8 -8 -8 -9 -9 -9 -9 -9 -9 -9 -9 -9 -9 -9 -9 -9 -9 -10 -10 -10 -10 -10 -10 -9 -10 -10 -10 -10 -10
-7 -7 -7 -7 -7 -7 -7 -8 -8 -8 -8 -8 -7 -8 -8 -8 -8 -8 -8 -8 -8 -8 -8 -8 -8 -8 -8 -8 -7 -8 -8 -8 -9 -8 -8 -8 -8 -8 -8 -9 -9 -9 -9 -9 -9 -9 -9 -9 -9 -9 -10 -10 -10 -10 -10 -10 -10 -10 -10 -10 -10 -10 -10
-7 -7 -7 -7 -7 -7 -7 -8 -8 -8 -8 -7 -7 -7 -8 -8 -8 -8 -8 -8 -8 -8 -8 -8 -8 -8 -7 -7 -7 -8 -8 -8 -8 -8 -8 -8 -8 -8 -9 -9 -9 -9 -9 -9 -9 -9 -9 -9 -9 -9 -10 -10 -10 -10 -10 -10 -10 -10 -10 -10 -10 -10 -10
-7 -7 -7 -7 -7 -7 -7 -8 -8 -8 -7 -7 -7 -7 -8 -8 -8 -8 -8 -8 -8 -8 -8 -8 -8 -7 -7 -7 -8 -8 -8 -8 -8 -7 -7 -8 -8 -8 -9 -9 -9 -9 -9 -9 -9 -9 -9 -10 -10 -10 -10 -10 -10 -10 -10 -10 -10 -10 -10 -10 -11 -11 -11
-7 -7 -7 -7 -7 -7 -7 -8 -8 -8 -7 -7 -7 -7 -8 -8 -8 -8 -8 -8 -8 -8 -8 -8 -7 -7 -7 -8 -8 -8 -8 -8 -8 -7 -7 -8 -9 -9 -8 -9 -9 -9 -9 -9 -9 -9 -10 -10 -10 -10 -10 -10 -10 -10 -10 -10 -10 -10 -10 -11 -11 -11 -11
-7 -7 -7 -7 -7 -7 -7 -8 -8 -8 -8 -8 -8 -8 -8 -8 -7 -7 -8 -8 -8 -7 -7 -8 -8 -8 -8 -8 -8 -8 -8 -8 -8 -8 -8 -9 -9 -8 -8 -9 -9 -9 -9 -9 -9 -10 -10 -10 -10 -10 -10 -10 -10 -10 -10 -10 -10 -10 -10 -11 -11 -11 -11
-7 -7 -7 -7 -7 -7 -8 -8 -8 -8 -8 -8 -8 -8 -8 -8 -8 -8 -8 -8 -8 -7 -8 -8 -8 -8 -8 -8 -8 -8 -8 -8 -8 -9 -9 -9 -9 -9 -9 -9 -9 -9 -9 -9 -9 -10 -10 -10 -10 -10 -10 -10 -10 -10 -10 -10 -10 -10 -11 -11 -11 -11 -11
-7 -7 -7 -7 -7 -7 -8 -8 -8 -8 -8 -8 -8 -8 -8 -8 -8 -8 -8 -8 -8 -8 -8 -8 -8 -8 -8 -8 -8 -8 -8 -8 -9 -9 -9 -9 -9 -9 -9 -9 -9 -9 -9 -9 -9 -10 -10 -10 -11 -11 -11 -10 -10 -10 -10 -10 -11 -11 -11 -11 -11 -11 -11
-7 -7 -7 -7 -7 -8 -8 -8 -8 -8 -8 -8 -8 -8 -8 -8 -8 -8 -8 -8 -8 -8 -8 -8 -8 -8 -8 -8 -8 -8 -8 -8 -9 -9 -9 -9 -9 -9 -9 -9 -9 -9 -9 -8 -9 -9 -10 -10 -11 -11 -10 -10 -10 -10 -10 -11 -11 -10 -11 -11 -11 -11 -11
-7 -7 -7 -7 -7 -8 -8 -8 -8 -8 -8 -8 -8 -8 -8 -8 -8 -8 -8 -8 -8 -8 -8 -8 -8 -8 -8 -8 -8 -8 -8 -8 -9 -9 -9 -9 -9 -9 -9 -9 -9 -9 -9 -8 -8 -9 -10 -10 -11 -10 -10 -10 -10 -10 -10 -11 -11 -10 -11 -11 -11 -12 -12
-7 -7 -7 -8 -8 -8 -8 -8 -8 -8 -8 -8 -8 -8 -8 -8 -8 -8 -8 -8 -8 -8 -8 -8 -8 -8 -8 -8 -8 -8 -8 -8 -9 -9 -9 -9 -10 -9 -9 -9 -9 -9 -9 -8 -8 -9 -10 -10 -10 -10 -10 -10 -10 -10 -10 -10 -10 -10 -11 -11 -12 -12 -12
-7 -8 -8 -8 -8 -8 -8 -8 -8 -8 -8 -8 -7 -8 -8 -8 -8 -8 -8 -8 -8 -8 -8 -8 -8 -8 -8 -8 -8 -8 -8 -9 -9 -9 -9 -10 -10 -9 -9 -9 -9 -9 -9 -8 -8 -9 -10 -10 -10 -10 -10 -10 -10 -10 -10 -10 -10 -11 -11 -11 -12 -12 -12
-7 -8 -8 -8 -8 -8 -8 -8 -8 -8 -8 -8 -8 -8 -8 -8 -8 -8 -8 -8 -8 -8 -8 -8 -8 -8 -8 -8 -8 -8 -9 -9 -9 -9 -9 -10 -10 -10 -9 -10 -9 -9 -9 -9 -9 -10 -10 -10 -10 -10 -10 -10 -11 -11 -11 -11 -11 -11 -11 -11 -12 -12 -12
-8 -8 -8 -8 -8 -8 -8 -8 -8 -8 -8 -8 -8 -8 -8 -8 -8 -8 -8 -8 -8 -8 -8 -8 -8 -8 -8 -9 -9 -9 -9 -9 -9 -9 -9 -10 -10 -10 -10 -10 -10 -9 -9 -9 -9 -10 -10 -10 -10 -10 -10 -11 -11 -11 -11 -11 -11 -11 -11 -12 -12 -12 -11
-8 -8 -8 -8 -7 -8 -8 -8 -8 -8 -8 -8 -8 -8 -8 -8 -8 -8 -8 -8 -8 -8 -8 -8 -9 -9 -9 -9 -9 -9 -9 -9 -9 -9 -9 -10 -10 -10 -10 -10 -10 -9 -9 -9 -9 -10 -10 -10 -10 -10 -11 -11 -12 -12 -11 -11 -11 -11 -12 -12 -12 -12 -12
-8 -8 -8 -8 -8 -8 -8 -8 -8 -8 -8 -8 -8 -8 -8 -9 -8 -8 -8 -8 -8 -9 -9 -9 -9 -9 -9 -9 -9 -9 -9 -9 -9 -9 -9 -9 -10 -10 -10 -10 -10 -9 -9 -9 -10 -10 -10 -10 -11 -11 -11 -12 -12 -12 -12 -11 -11 -11 -12 -12 -12 -12 -12
-8 -8 -8 -8 -8 -8 -8 -8 -8 -9 -9 -9 -9 -9 -9 -8 -8 -8 -8 -9 -9 -9 -9 -9 -9 -9 -9 -10 -10 -9 -9 -9 -9 -9 -9 -9 -10 -10 -10 -10 -10 -9 -9 -9 -10 -10 -10 -10 -11 -11 -11 -12 -12 -12 -12 -11 -11 -12 -12 -12 -12 -12 -12
-8 -8 -8 -8 -8 -8 -8 -8 -9 -9 -9 -9 -9 -9 -8 -8 -8 -8 -9 -9 -9 -9 -9 -9 -10 -10 -10 -10 -10 -10 -9 -9 -10 -10 -10 -9 -10 -10 -10 -10 -10 -9 -10 -10 -10 -10 -10 -10 -11 -11 -11 -12 -12 -12 -12 -12 -12 -12 -12 -12 -13 -13 -12
-8 -8 -9 -9 -9 -9 -9 -9 -9 -9 -9 -9 -8 -9 -9 -9 -9 -9 -9 -9 -10 -10 -10 -10 -10 -10 -10 -10 -10 -10 -10 -10 -10 -10 -10 -10 -10 -10 -10 -10 -10 -10 -10 -10 -10 -10 -10 -11 -11 -11 -11 -12 -12 -12 -12 -12 -12 -12 -13 -13 -13 -13 -13
-9 -9 -9 -9 -9 -8 -8 -9 -9 -9 -9 -9 -9 -9 -9 -9 -9 -9 -10 -10 -10 -10 -10 -10 -10 -10 -10 -10 -10 -10 -10 -10 -10 -10 -10 -10 -10 -9 -9 -10 -10 -10 -10 -10 -10 -11 -11 -11 -11 -11 -11 -12 -12 -12 -12 -12 -12 -13 -13 -13 -13 -13 -13
-9 -9 -9 -9 -9 -9 -9 -9 -9 -9 -9 -9 -9 -9 -9 -9 -9 -10 -10 -10 -10 -10 -10 -10 -10 -10 -10 -10 -10 -10 -10 -10 -10 -10 -10 -10 -10 -9 -9 -10 -10 -10 -10 -10 -11 -11 -10 -10 -11 -11 -11 -12 -12 -12 -12 -12 -13 -13 -13 -13 -13 -13 -13
-9 -9 -9 -9 -9 -9 -9 -9 -9 -9 -9 -9 -9 -10 -10 -10 -9 -10 -10 -10 -10 -10 -10 -10 -10 -9 -9 -10 -10 -10 -10 -10 -10 -10 -10 -10 -10 -10 -10 -10 -10 -10 -10 -11 -11 -11 -11 -11 -11 -11 -11 -12 -12 -12 -13 -13 -13 -13 -13 -13 -13 -13 -13
-9 -9 -9 -9 -9 -9 -9 -9 -10 -10 -9 -9 -9 -10 -9 -9 -9 -9 -10 -10 -10 -10 -10 -10 -10 -10 -10 -10 -10 -10 -10 -10 -10 -10 -10 -10 -10 -10 -10 -10 -10 -10 -10 -11 -11 -11 -12 -12 -12 -12 -12 -12 -12 -13 -13 -13 -13 -13 -13 -13 -13 -13 -14
-9 -9 -9 -9 -9 -9 -9 -9 -9 -9 -9 -9 -9 -9 -9 -9 -9 -9 -9 -10 -10 -10 -10 -10 -10 -10 -10 -10 -10 -10 -10 -10 -10 -10 -10 -10 -10 -10 -10 -10 -10 -10 -10 -11 -11 -11 -12 -12 -12 -12 -12 -12 -13 -13 -13 -13 -13 -13 -13 -13 -13 -14 -14
-9 -9 -9 -9 -9 -9 -9 -9 -9 -9 -9 -9 -9 -9 -9 -9 -8 -8 -9 -9 -9 -9 -10 -10 -10 -10 -10 -10 -10 -10 -10 -10 -10 -10 -10 -10 -10 -10 -10 -10 -10 -11 -11 -11 -11 -12 -12 -12 -12 -12 -12 -13 -13 -13 -13 -13 -13 -13 -13 -14 -14 -14 -14
-9 -9 -9 -9 -9 -9 -10 -10 -10 -9 -9 -9 -9 -9 -9 -9 -9 -8 -8 -9 -9 -9 -10 -10 -9 -9 -9 -10 -10 -10 -10 -10 -10 -10 -10 -10 -10 -11 -11 -11 -11 -11 -11 -12 -12 -12 -12 -12 -12 -12 -13 -13 -13 -13 -13 -13 -14 -14 -14 -14 -14 -14 -14
-10 -10 -10 -9 -9 -10 -10 -10 -10 -10 -9 -9 -9 -9 -9 -9 -9 -9 -9 -9 -9 -10 -10 -10 -10 -10 -10 -10 -10 -10 -10 -10 -10 -11 -11 -11 -11 -11 -11 -11 -11 -11 -11 -12 -12 -12 -13 -13 -13 -13 -13 -13 -13 -13 -14 -14 -14 -14 -14 -14 -14 -14 -14
Height
5904 5905 5906 5907 5907 5908 5908 5908 5908 5908 5908 5909 5909 5909 5908 5909 5909 5909 5909 5910 5910 5910 5909 5909 5909 5909 5909 5909 5909 5909 5909 5909 5908 5908 5907 5906 5906 5905 5905 5904 5904 5903 5902 5901 5900 5900 5899 5899 5898 5897 5897 5896 5895 5894 5893 5892 5891 5890 5889 5888 5887 5886 5885
5903 5903 5904 5905 5905 5906 5906 5906 5906 5906 5906 5906 5906 5906 5906 5906 5906 5907 5907 5907 5907 5907 5907 5907 5907 5906 5906 5906 5906 5907 5907 5906 5906 5905 5905 5904 5903 5903 5902 5902 5901 5901 5900 5899 5898 5897 5897 5896 5895 5894 5894 5893 5892 5891 5890 5890 5889 5888 5887 5886 5885 5883 5882
5902 5902 5902 5903 5903 5903 5904 5904 5904 5904 5905 5904 5904 5905 5905 5905 5904 5904 5905 5905 5905 5905 5905 5905 5904 5904 5904 5904 5904 5904 5904 5904 5903 5902 5902 5901 5901 5901 5900 5899 5899 5898 5897 5896 5895 5895 5894 5894 5893 5892 5891 5890 5890 5889 5888 5887 5886 5885 5884 5883 5882 5881 5879
5900 5900 5900 5900 5901 5901 5901 5902 5903 5903 5903 5903 5903 5903 5902 5903 5903 5903 5903 5902 5902 5902 5902 5902 5902 5902 5902 5902 5902 5902 5902 5901 5900 5900 5899 5899 5898 5898 5897 5896 5896 5895 5894 5893 5893 5892 5892 5891 5890 5889 5888 5888 5887 5886 5885 5884 5883 5881 5881 5880 5879 5878 5876
5898 5898 5898 5898 5899 5899 5899 5900 5900 5901 5901 5901 5901 5901 5900 5900 5900 5900 5900 5900 5900 5900 5900 5900 5899 5900 5899 5899 5900 5899 5899 5898 5898 5897 5896 5896 5895 5895 5894 5893 5892 5892 5891 5891 5891 5890 5889 5888 5887 5886 5885 5885 5884 5883 5881 5880 5879 5878 5877 5876 5875 5874 5873
5896 5896 5896 5897 5897 5897 5897 5898 5898 5898 5899 5898 5899 5898 5898 5898 5898 5898 5898 5898 5898 5898 5897 5897 5897 5897 5897 5897 5897 5896 5896 5895 5895 5894 5893 5893 5892 5891 5890 5889 5889 5888 5888 5888 5888 5888 5887 5885 5884 5883 5881 5881 5881 5879 5878 5877 5876 5875 5874 5873 5872 5871 5870
5893 5894 5894 5895 5895 5895 5895 5896 5896 5896 5896 5896 5896 5896 5896 5896 5895 5895 5895 5895 5895 5895 5895 5895 5895 5895 5895 5894 5894 5893 5892 5892 5891 5891 5890 5889 5888 5888 5887 5886 5885 5885 5885 5884 5884 5884 5883 5882 5881 5879 5878 5878 5877 5876 5875 5874 5873 5872 5871 5870 5869 5868 5867
5891 5891 5892 5893 5893 5894 5894 5893 5894 5894 5893 5893 5894 5894 5894 5894 5893 5893 5893 5893 5893 5893 5893 5893 5893 5892 5892 5892 5891 5890 5889 5888 5888 5887 5886 5885 5884 5884 5883 5883 5882 5882 5881 5880 5880 5880 5879 5878 5877 5876 5875 5874 5874 5872 5871 5871 5870 5869 5868 5867 5866 5865 5864
5888 5889 5890 5891 5891 5891 5891 5891 5891 5891 5891 5891 5891 5891 5891 5891 5891 5891 5890 5890 5890 5890 5890 5890 5890 5890 5890 5889 5888 5886 5885 5884 5883 5883 5882 5882 5881 5881 5880 5879 5879 5878 5878 5877 5876 5876 5875 5874 5873 5872 5871 5871 5870 5869 5868 5867 5866 5865 5865 5864 5863 5862 5860
5886 5887 5887 5888 5888 5889 5889 5889 5889 5888 5888 5888 5889 5889 5888 5888 5888 5888 5888 5888 5888 5888 5887 5888 5888 5887 5887 5886 5884 5882 5879 5877 5878 5880 5881 5881 5880 5878 5877 5876 5876 5875 5874 5873 5872 5872 5872 5871 5869 5868 5868 5868 5867 5866 5865 5864 5863 5862 5861 5860 5859 5858 5856
5883 5884 5884 5885 5885 5886 5886 5886 5886 5886 5886 5886 5886 5886 5885 5885 5885 5885 5885 5885 5885 5885 5885 5885 5885 5884 5883 5881 5880 5878 5874 5874 5878 5880 5881 5880 5877 5874 5872 5871 5871 5871 5869 5869 5868 5868 5868 5867 5865 5865 5864 5864 5863 5862 5861 5860 5859 5858 5857 5856 5855 5853 5852
5880 5881 5881 5882 5882 5883 5883 5884 5883 5883 5883 5883 5883 5883 5882 5882 5882 5882 5882 5882 5882 5882 5882 5882 5881 5880 5879 5877 5875 5874 5874 5875 5877 5876 5876 5874 5870 5868 5867 5866 5866 5865 5865 5865 5865 5864 5864 5862 5861 5861 5861 5860 5859 5858 5857 5857 5856 5854 5853 5852 5850 5849 5848
5877 5878 5879 5879 5879 5880 5880 5881 5881 5881 5881 5881 5881 5880 5880 5880 5880 5880 5880 5879 5879 5879 5879 5879 5878 5876 5875 5873 5872 5874 5875 5874 5872 5870 5869 5866 5863 5863 5864 5863 5862 5862 5861 5861 5860 5860 5859 5858 5857 5857 5856 5855 5855 5854 5853 5852 5851 5850 5848 5847 5846 5845 5844
5874 5875 5875 5876 5877 5877 5877 5878 5878 5878 5879 5879 5878 5878 5878 5877 5877 5877 5877 5877 5877 5876 5876 5875 5874 5873 5872 5871 5872 5873 5872 5870 5867 5864 5863 5861 5860 5861 5861 5860 5859 5858 5857 5856 5856 5855 5855 5854 5853 5852 5851 5851 5850 5849 5849 5848 5846 5845 5844 5843 5841 5840 5839
5871 5872 5872 5873 5874 5874 5874 5875 5875 5876 5876 5876 5876 5876 5875 5875 5875 5875 5875 5874 5874 5873 5873 5872 5872 5871 5870 5870 5869 5869 5868 5866 5862 5856 5856 5858 5859 5859 5858 5857 5855 5854 5853 5852 5851 5850 5849 5849 5848 5847 5846 5846 5845 5845 5844 5843 5842 5841 5840 5838 5837 5836 5834
5868 5869 5870 5870 5871 5871 5872 5872 5872 5873 5873 5873 5873 5873 5873 5873 5872 5872 5872 5872 5871 5871 5870 5870 5870 5869 5868 5867 5867 5865 5864 5863 5858 5853 5853 5856 5857 5855 5854 5853 5852 5850 5849 5848 5847 5845 5844 5844 5843 5842 5841 5841 5841 5840 5839 5838 5837 5836 5835 5834 5833 5831 5830
5865 5866 5867 5867 5868 5868 5869 5869 5869 5870 5870 5870 5870 5870 5870 5870 5870 5870 5869 5869 5869 5868 5868 5868 5868 5867 5866 5865 5864 5862 5860 5858 5855 5853 5853 5854 5854 5852 5851 5850 5848 5846 5844 5843 5842 5840 5840 5839 5838 5838 5837 5837 5837 5836 5835 5834 5833 5832 5831 5829 5828 5827 5826
5862 5862 5863 5864 5865 5865 5865 5865 5866 5866 5867 5867 5866 5866 5866 5866 5866 5866 5866 5866 5866 5865 5865 5865 5865 5864 5863 5862 5861 5859 5856 5854 5853 5851 5849 5849 5849 5849 5848 5846 5845 5842 5840 5839 5837 5835 5835 5834 5833 5833 5833 5833 5832 5832 5831 5830 5829 5827 5825 5824 5823 5822 5821
5858 5859 5860 5861 5861 5862 5861 5862 5863 5863 5863 5863 5863 5862 5862 5862 5862 5862 5862 5862 5862 5862 5862 5862 5861 5861 5860 5858 5857 5855 5853 5851 5849 5846 5844 5844 5844 5844 5843 5842 5840 5838 5836 5834 5832 5831 5830 5829 5829 5829 5828 5828 5828 5827 5826 5825 5824 5822 5820 5819 5818 5817 5816
5855 5856 5857 5857 5858 5858 5857 5858 5859 5859 5859 5859 5858 5858 5858 5858 5858 5858 5858 5858 5858 5858 5858 5858 5857 5857 5856 5855 5853 5851 5849 5847 5845 5842 5841 5840 5839 5839 5838 5837 5835 5833 5831 5829 5827 5826 5825 5824 5824 5824 5823 5823 5822 5822 5822 5821 5819 5817 5816 5815 5813 5812 5811
5851 5852 5853 5853 5854 5854 5853 5854 5854 5854 5853 5853 5853 5853 5854 5854 5854 5854 5854 5854 5854 5854 5854 5854 5853 5852 5851 5850 5849 5847 5845 5843 5840 5838 5836 5836 5835 5835 5834 5832 5831 5829 5826 5825 5823 5821 5820 5819 5819 5820 5819 5818 5818 5817 5817 5816 5815 5813 5811 5810 5808 5806 5806
5847 5848 5848 5848 5849 5849 5849 5849 5849 5848 5848 5848 5848 5849 5850 5850 5850 5850 5850 5850 5850 5850 5850 5849 5848 5847 5846 5844 5843 5841 5839 5838 5836 5832 5831 5831 5830 5830 5829 5827 5826 5824 5822 5820 5818 5816 5815 5815 5815 5815 5815 5814 5814 5813 5812 5811 5810 5808 5806 5804 5803 5801 5800
5842 5843 5843 5843 5843 5843 5843 5843 5843 5842 5842 5842 5844 5845 5846 5846 5846 5846 5846 5846 5846 5845 5845 5844 5843 5842 5841 5839 5838 5836 5834 5832 5830 5827 5826 5826 5825 5824 5823 5821 5821 5820 5818 5816 5813 5811 5810 5810 5810 5811 5811 5810 5810 5809 5808 5806 5805 5803 5801 5799 5797 5795 5794
5837 5837 5838 5837 5837 5838 5838 5838 5837 5837 5838 5839 5840 5841 5841 5842 5842 5842 5842 5842 5841 5841 5840 5839 5838 5837 5836 5834 5832 5830 5828 5827 5824 5821 5821 5821 5819 5817 5817 5816 5815 5814 5812 5810 5808 5806 5805 5805 5806 5806 5806 5806 5805 5804 5803 5801 5799 5797 5795 5793 5791 5790 5789
5832 5832 5832 5832 5832 5833 5833 5833 5833 5833 5834 5835 5836 5836 5837 5837 5838 5838 5838 5837 5837 5836 5835 5833 5832 5831 5830 5828 5826 5824 5822 5821 5818 5815 5814 5814 5813 5812 5812 5810 5809 5808 5806 5803 5801 5800 5800 5800 5801 5801 5801 5800 5799 5798 5797 5795 5793 5791 5789 5787 5786 5784 5784
5826 5827 5827 5827 5828 5828 5828 5829 5829 5829 5830 5830 5831 5832 5832 5833 5833 5833 5833 5832 5832 5831 5829 5828 5827 5825 5823 5822 5820 5818 5816 5815 5813 5809 5807 5808 5808 5807 5805 5804 5803 5802 5800 5797 5796 5795 5795 5795 5796 5796 5795 5794 5793 5792 5791 5790 5788 5786 5784 5782 5781 5780 5779
5821 5822 5823 5823 5823 5823 5824 5825 5825 5825 5825 5826 5827 5828 5828 5828 5828 5828 5828 5827 5826 5825 5824 5822 5821 5819 5817 5815 5813 5811 5810 5808 5806 5803 5801 5801 5800 5800 5799 5798 5797 5796 5794 5791 5791 5791 5792 5791 5791 5791 5790 5788 5787 5786 5785 5784 5783 5780 5778 5777 5776 5775 5774
5816 5817 5818 5818 5819 5819 5820 5821 5821 5821 5822 5822 5823 5823 5823 5823 5823 5822 5822 5821 5820 5819 5818 5816 5814 5812 5810 5808 5806 5805 5804 5802 5800 5798 5796 5795 5794 5793 5792 5791 5790 5789 5787 5786 5786 5787 5786 5785 5785 5785 5784 5782 5782 5781 5780 5779 5778 5775 5773 5772 5771 5770 5768
5811 5812 5813 5813 5814 5815 5816 5817 5817 5818 5818 5818 5818 5818 5818 5817 5817 5816 5816 5815 5814 5813 5812 5810 5808 5806 5804 5802 5800 5799 5798 5796 5794 5792 5791 5790 5788 5787 5786 5785 5784 5783 5781 5781 5782 5781 5781 5781 5781 5780 5778 5777 5776 5775 5774 5773 5772 5770 5768 5767 5766 5764 5762
5806 5807 5807 5808 5809 5810 5811 5812 5812 5812 5812 5812 5812 5812 5812 5811 5810 5810 5809 5808 5807 5806 5805 5803 5801 5799 5797 5795 5794 5793 5792 5791 5789 5788 5787 5785 5784 5782 5781 5779 5778 5778 5777 5777 5777 5777 5777 5776 5775 5774 5772 5771 5770 5769 5768 5767 5766 5765 5763 5762 5760 5758 5756
5799 5801 5802 5803 5804 5804 5805 5805 5806 5806 5806 5807 5807 5806 5806 5805 5804 5803 5801 5800 5800 5799 5798 5796 5794 5792 5790 5788 5787 5787 5786 5786 5784 5783 5783 5781 5780 5778 5776 5773 5773 5774 5774 5773 5773 5773 5772 5771 5769 5768 5767 5765 5764 5763 5762 5761 5760 5759 5758 5757 5754 5752 5749
5794 5796 5797 5798 5798 5799 5800 5800 5801 5801 5801 5801 5801 5800 5799 5798 5797 5796 5794 5793 5792 5792 5791 5790 5788 5786 5784 5782 5781 5781 5781 5781 5780 5779 5779 5778 5776 5775 5773 5770 5769 5769 5769 5769 5768 5768 5767 5765 5764 5763 5762 5760 5759 5758 5757 5756 5755 5754 5752 5751 5748 5746 5743
5790 5791 5792 5793 5793 5794 5795 5796 5796 5796 5796 5795 5794 5793 5791 5791 5790 5788 5787 5786 5785 5785 5785 5784 5783 5781 5779 5777 5777 5776 5776 5776 5775 5774 5774 5773 5773 5773 5771 5769 5768 5766 5763 5763 5762 5761 5761 5760 5760 5759 5758 5756 5755 5753 5751 5750 5749 5748 5747 5745 5743 5741 5738
5786 5787 5787 5788 5788 5789 5790 5790 5790 5790 5790 5788 5786 5785 5785 5784 5783 5782 5780 5779 5779 5779 5778 5777 5777 5776 5774 5773 5772 5771 5771 5770 5769 5769 5769 5768 5768 5768 5766 5765 5765 5763 5760 5758 5757 5756 5756 5755 5755 5754 5753 5752 5750 5748 5746 5744 5744 5743 5741 5740 5738 5736 5733
5781 5781 5782 5783 5783 5784 5784 5784 5784 5783 5782 5781 5780 5780 5780 5779 5778 5777 5775 5773 5772 5772 5772 5771 5771 5771 5769 5768 5767 5767 5765 5764 5763 5763 5763 5763 5763 5762 5761 5759 5759 5758 5756 5754 5753 5752 5751 5751 5750 5749 5748 5746 5744 5743 5741 5739 5738 5737 5735 5734 5732 5730 5728
5775 5776 5777 5777 5778 5778 5778 5777 5777 5776 5776 5776 5775 5775 5775 5774 5773 5772 5770 5767 5766 5766 5766 5766 5766 5766 5764 5763 5763 5762 5760 5759 5758 5758 5757 5757 5756 5755 5755 5754 5753 5752 5751 5749 5748 5748 5747 5746 5745 5744 5743 5741 5739 5738 5736 5735 5733 5731 5730 5728 5727 5725 5723
5769 5770 5771 5771 5771 5771 5771 5771 5770 5770 5770 5770 5770 5770 5770 5769 5768 5766 5764 5763 5761 5761 5761 5761 5761 5760 5760 5759 5758 5756 5755 5754 5753 5752 5750 5750 5750 5749 5749 5748 5748 5746 5745 5744 5743 5743 5742 5741 5740 5739 5737 5736 5734 5732 5731 5729 5728 5726 5724 5723 5721 5719 5716
5763 5764 5765 5765 5765 5765 5765 5765 5765 5765 5765 5765 5764 5764 5764 5763 5762 5760 5759 5757 5756 5756 5756 5756 5755 5755 5755 5754 5752 5750 5750 5749 5749 5748 5746 5745 5744 5744 5744 5743 5742 5741 5740 5739 5738 5738 5737 5735 5734 5733 5731 5729 5728 5727 5725 5724 5722 5720 5719 5717 5715 5712 5709
Wind_Speed
13 9 7 7 8 8 9 10 10 11 11 12 13 15 16 16 17 17 17 18 18 19 19 20 20 19 18 18 18 19 19 20 20 20 20 20 20 19 19 19 19 21 22 24 26 26 25 25 25 24 24 23 22 21 20 20 20 20 19 19 20 20 20
10 8 9 10 11 10 9 9 8 7 8 10 12 13 14 16 17 17 18 19 19 19 19 19 19 18 19 19 19 20 20 20 20 20 21 21 20 20 21 22 22 22 24 25 27 27 26 26 26 25 24 23 23 22 21 21 21 20 20 20 21 21 21
9 9 11 12 12 12 11 10 8 7 8 10 12 13 14 15 16 17 18 18 18 18 18 18 18 19 20 20 20 21 21 21 21 22 22 21 21 21 22 23 23 24 25 26 27 27 26 26 26 26 25 23 23 22 21 21 21 20 20 21 22 22 22
8 9 13 15 14 14 13 12 11 10 10 12 13 14 15 15 15 16 16 17 17 17 17 18 19 19 19 20 20 21 22 22 22 22 23 23 23 23 23 25 25 26 27 27 27 27 26 26 27 27 26 24 23 23 22 21 22 21 21 21 22 23 23
9 11 13 16 16 16 14 12 12 11 11 13 14 14 15 15 14 13 13 14 15 15 16 17 17 17 18 19 19 20 21 21 22 23 24 24 24 24 25 27 27 27 28 28 27 26 26 27 28 28 27 25 24 23 22 22 23 23 22 23 24 24 24
10 12 13 15 16 15 14 12 13 13 14 15 15 14 15 14 13 12 12 12 13 14 15 15 14 15 16 17 18 20 21 22 23 23 24 25 26 26 27 28 28 29 29 29 28 26 25 27 28 29 29 27 25 24 22 23 24 24 23 23 25 25 25
12 11 12 15 16 15 14 15 15 15 17 17 17 15 14 13 13 12 12 12 13 13 13 13 13 13 14 15 17 19 20 22 22 22 23 25 26 27 28 29 29 29 30 30 29 26 25 27 27 29 30 28 26 24 23 24 24 24 24 24 25 26 26
13 11 12 16 17 16 17 18 18 18 19 19 18 17 15 13 12 11 11 12 12 11 11 12 12 12 14 15 17 19 21 21 20 21 23 24 25 27 29 30 30 30 30 30 30 28 26 27 27 29 31 29 27 25 25 25 25 25 25 25 26 26 26
17 15 15 18 20 19 20 20 20 20 21 21 19 17 15 13 12 11 11 11 11 10 11 12 12 13 15 17 19 22 24 24 23 23 24 25 26 27 29 31 31 32 31 31 32 30 27 27 27 30 31 30 28 27 26 27 26 26 26 26 27 27 27
20 19 20 21 22 22 22 22 21 22 22 22 21 18 16 14 12 11 11 10 10 11 13 13 14 15 17 20 22 24 28 31 29 26 27 28 27 28 32 33 32 32 33 33 33 31 29 28 28 30 31 30 28 28 29 29 27 27 27 28 28 28 28
20 21 22 21 20 21 22 21 22 23 23 23 21 18 16 14 12 11 12 12 12 13 14 15 16 18 20 23 25 27 32 35 34 32 32 33 31 31 34 36 34 33 33 33 33 33 33 32 31 31 30 29 28 30 30 29 27 28 28 29 30 30 30
21 23 23 22 21 21 21 22 23 23 23 22 18 15 14 13 13 13 13 14 15 15 16 17 18 20 22 25 28 30 32 33 33 34 34 35 38 38 38 37 38 39 38 35 33 34 35 35 34 32 30 29 29 30 29 27 27 29 29 29 30 31 31
24 24 24 24 23 22 22 23 24 23 22 20 17 15 14 14 14 15 15 16 16 16 17 18 20 22 24 28 29 29 28 29 30 32 33 34 37 39 39 41 42 42 39 37 37 37 37 35 34 32 31 30 30 29 28 28 29 30 30 30 31 32 32
23 23 24 23 22 22 23 24 24 22 21 19 18 17 16 15 16 17 17 17 17 17 18 19 22 24 26 28 28 27 28 30 34 36 34 33 33 33 36 41 43 42 40 39 40 41 39 37 35 33 32 31 31 29 29 30 31 31 31 31 32 32 32
22 22 22 21 20 21 23 23 22 20 19 19 19 18 16 17 17 18 18 18 17 18 19 21 23 25 26 27 26 27 30 34 38 42 40 37 34 34 36 37 38 39 40 41 42 41 39 39 38 35 33 32 30 30 31 32 33 33 32 31 32 32 33
23 22 22 20 18 18 19 20 20 20 19 17 18 17 16 15 16 18 19 19 19 20 21 22 23 23 24 24 26 30 34 35 39 43 42 39 36 36 38 38 36 35 36 38 40 40 40 41 39 35 33 31 30 31 33 34 35 35 34 32 32 33 34
23 22 22 20 17 16 18 20 21 20 19 18 19 18 16 15 15 16 19 20 21 22 22 23 22 22 23 25 28 33 35 36 38 41 39 36 34 33 34 33 33 34 35 36 37 37 39 40 37 33 32 30 30 32 34 35 36 37 35 33 33 33 34
23 22 21 19 18 18 20 22 22 22 20 20 22 22 21 19 17 18 19 20 22 23 24 25 24 25 26 30 32 35 37 38 39 41 40 39 36 32 30 31 33 35 36 37 36 36 37 37 35 33 33 34 34 34 34 35 37 38 36 35 34 34 35
25 24 22 22 22 22 23 24 23 23 23 23 24 25 25 24 23 22 23 23 24 25 26 27 28 29 31 33 35 36 39 41 41 42 44 44 38 31 29 30 33 35 36 36 35 34 34 35 35 35 35 35 35 34 34 36 38 38 37 36 35 35 35
27 26 25 26 27 26 26 26 25 26 27 27 27 27 28 27 26 27 27 26 27 28 29 30 31 32 33 34 36 38 41 42 43 44 45 43 38 34 33 34 34 35 35 34 33 33 33 33 32 30 28 29 30 32 35 37 38 39 39 37 36 36 37
28 27 27 29 29 29 29 29 28 29 30 30 31 31 30 29 29 30 29 29 30 31 32 33 34 35 36 37 39 41 42 43 44 47 46 42 40 39 39 39 36 33 32 33 33 33 31 28 25 23 24 25 27 31 34 37 38 39 39 38 36 36 37
28 29 30 29 29 30 31 31 31 32 33 34 34 33 30 30 32 32 31 32 33 34 35 36 37 38 39 41 42 43 45 45 46 48 47 44 41 39 37 36 33 31 31 33 33 32 29 26 24 24 24 25 26 29 33 36 37 38 39 38 37 36 36
29 32 33 31 31 32 34 34 35 37 38 38 36 33 31 33 34 34 33 34 36 37 39 39 40 41 42 45 46 47 47 47 48 50 48 43 41 39 35 32 32 32 32 33 33 31 28 27 26 26 25 24 24 25 28 32 35 37 39 39 37 36 37
32 35 36 35 36 37 37 38 39 41 41 39 35 34 34 35 36 35 35 36 38 40 41 42 42 43 45 47 48 48 49 49 50 51 49 44 42 39 34 32 34 34 33 34 33 29 27 28 29 27 26 25 24 25 27 31 34 37 39 39 37 36 37
35 38 40 41 41 41 41 41 42 42 40 38 36 37 37 37 36 36 37 39 40 43 45 44 44 46 48 49 49 49 49 49 50 51 50 45 41 37 35 35 36 34 32 33 32 28 26 27 27 27 27 26 26 27 30 34 36 38 38 37 36 36 37
37 40 43 44 44 45 44 43 43 41 38 38 39 39 38 37 38 39 40 42 44 46 47 46 48 50 50 50 50 50 50 50 50 50 48 43 39 36 35 35 35 34 33 31 29 27 27 27 27 29 29 27 28 31 33 36 38 39 38 35 35 37 38
38 40 42 45 46 46 45 43 41 40 39 39 39 39 38 38 40 42 45 47 48 49 49 49 51 52 52 53 53 52 51 51 50 47 45 43 39 36 36 36 36 35 32 28 26 28 30 31 30 31 32 31 31 33 36 38 40 40 37 35 36 38 39
38 39 41 43 44 44 42 40 38 38 38 38 38 38 40 42 44 47 49 50 49 50 50 51 52 53 55 55 53 52 52 51 48 45 43 42 39 38 38 38 38 35 30 25 26 30 34 34 33 33 35 35 35 36 39 40 40 39 37 35 36 39 41
37 38 39 39 39 40 38 38 38 39 40 42 42 42 44 45 47 49 50 50 51 51 51 52 53 54 54 53 52 52 51 48 44 42 41 41 40 40 40 39 39 34 28 24 26 30 33 34 35 38 39 38 37 39 41 41 40 37 35 35 38 42 46
36 34 35 36 37 38 40 43 44 45 46 46 44 43 44 46 47 49 51 52 53 52 52 52 53 53 53 54 55 52 47 43 42 41 40 40 40 41 42 41 37 32 28 26 27 29 32 36 41 44 42 39 40 42 42 42 39 35 34 37 43 48 51
42 39 38 38 38 39 41 44 45 46 45 43 42 42 44 45 47 50 53 54 53 52 52 52 54 55 55 54 51 45 40 39 40 40 40 40 41 42 42 38 33 32 32 32 29 29 34 40 43 43 41 42 44 45 43 40 37 34 38 45 49 51 50
41 41 40 39 38 38 39 41 42 43 43 43 43 42 43 45 46 50 54 54 52 52 51 51 52 52 49 43 39 37 37 38 40 41 41 40 40 41 38 34 33 35 35 34 33 35 38 41 42 42 43 46 45 42 38 36 36 39 45 49 49 49 48
36 37 37 37 37 37 38 39 41 42 42 42 42 41 42 44 47 51 53 52 51 51 52 50 48 43 37 34 35 36 38 39 40 41 40 39 39 39 38 36 37 38 37 38 40 41 39 39 42 44 44 43 39 35 35 38 42 46 48 47 47 47 44
36 36 36 38 38 37 37 38 40 39 38 39 39 39 40 43 46 48 51 51 52 53 52 47 42 38 35 35 36 38 39 40 41 40 39 38 38 37 37 39 40 40 40 41 41 38 36 38 42 42 39 36 35 36 40 45 47 47 46 46 45 42 38
37 38 39 39 38 38 38 38 37 36 35 36 37 38 39 40 40 40 42 44 45 46 44 42 40 39 38 38 38 39 39 40 41 40 39 38 37 38 40 41 40 37 36 35 34 33 33 35 37 37 36 38 40 43 46 47 47 47 46 44 40 37 39
39 39 39 38 38 38 38 38 37 37 36 36 37 38 39 39 38 36 35 35 35 35 36 38 39 39 38 38 38 38 39 41 42 42 42 40 39 39 39 38 36 35 35 34 33 33 33 33 35 38 41 44 47 47 47 47 46 45 42 39 37 40 45
39 38 38 38 39 39 39 39 39 38 37 36 37 38 40 41 40 38 36 33 32 33 35 37 38 38 38 38 39 40 41 41 40 39 39 38 36 35 35 36 38 40 40 37 34 35 37 39 41 44 46 47 47 47 46 45 42 40 40 40 42 46 49
39 39 38 38 39 39 39 38 37 37 37 37 38 39 40 41 41 39 37 35 34 35 36 37 38 39 38 39 41 41 40 38 35 33 31 30 31 35 39 41 42 43 41 38 37 40 43 45 45 46 45 45 45 45 43 41 39 39 41 44 47 49 50
Wind_Direction
212 216 235 256 271 277 281 280 272 264 258 254 254 256 257 259 259 261 265 267 270 272 274 276 276 275 273 272 274 277 281 285 286 287 289 291 293 292 291 289 291 293 296 298 300 301 303 304 303 300 301 304 305 305 306 305 307 310 312 313 313 313 314
225 228 245 263 274 273 269 270 270 268 258 252 255 258 260 263 264 266 268 270 271 272 273 275 275 273 272 273 276 280 285 287 287 288 291 294 296 295 292 292 292 293 295 297 298 300 302 303 301 300 301 303 305 305 305 304 305 308 311 312 313 313 314
238 240 256 264 262 257 261 264 262 266 269 267 266 266 267 268 269 271 272 274 273 271 271 270 270 269 270 274 278 283 287 289 290 292 295 297 297 297 296 294 294 293 293 294 295 298 300 301 300 299 301 303 306 306 305 304 306 309 311 312 312 313 313
253 252 257 259 255 256 265 266 260 265 274 276 275 274 273 271 271 272 273 272 271 270 268 267 267 269 273 276 280 283 287 292 295 297 298 298 297 297 296 295 294 293 292 292 294 297 299 301 300 301 303 306 308 307 305 304 308 310 311 311 311 312 313
255 255 255 260 265 269 269 260 260 272 281 282 281 278 277 276 275 273 266 264 267 269 269 269 271 274 276 278 282 286 291 295 298 299 299 299 297 295 293 292 293 293 292 292 294 298 301 301 302 304 307 308 309 308 305 305 308 309 309 310 312 313 314
243 248 250 257 266 269 266 260 263 277 286 288 288 284 280 280 279 275 263 256 258 263 268 272 274 276 278 282 287 290 294 297 297 298 299 298 296 293 291 291 292 292 292 293 295 299 301 302 303 305 307 308 308 306 302 303 307 307 307 310 312 313 313
243 244 241 249 260 263 263 265 267 275 284 288 291 290 285 281 278 271 258 248 248 253 259 265 268 273 279 285 290 293 295 295 295 297 296 295 292 289 289 290 290 291 292 294 296 298 300 302 303 304 304 305 306 303 300 302 306 306 307 310 311 311 311
252 253 240 244 255 260 262 266 268 274 279 284 289 291 285 278 269 257 244 241 245 249 252 258 265 273 282 288 292 294 292 291 293 294 290 289 287 285 287 288 289 291 292 292 293 296 299 301 302 301 301 303 304 302 299 301 304 305 305 307 308 308 308
254 257 245 240 247 252 257 260 264 270 275 281 287 287 279 269 256 243 237 238 245 252 258 263 269 277 283 288 291 293 291 286 284 282 280 283 285 283 283 286 289 290 290 288 289 291 295 299 300 298 298 300 301 299 298 299 302 302 302 304 305 305 306
254 255 250 245 243 243 248 254 261 267 272 279 285 282 271 261 252 245 244 247 254 263 268 273 278 283 286 289 292 291 286 282 280 277 277 284 288 284 280 280 284 287 287 285 286 288 291 293 293 291 293 296 296 295 295 296 298 300 301 304 305 304 305
249 247 248 248 245 243 248 256 258 261 268 278 283 277 266 258 255 254 255 260 266 271 277 283 288 290 291 293 291 284 283 287 289 286 283 283 283 282 280 277 277 279 282 283 282 284 286 286 287 287 289 292 292 293 294 292 293 297 300 303 304 304 304
241 241 244 247 250 250 252 252 251 256 266 273 275 271 265 260 259 261 263 267 272 278 285 290 292 291 290 288 285 285 294 304 303 296 292 286 279 278 279 277 276 277 280 281 279 280 284 284 286 288 288 288 289 291 292 289 289 293 295 299 302 303 304
237 239 241 246 252 252 247 245 247 254 261 261 262 266 267 264 262 263 265 270 277 283 289 291 290 288 285 285 287 296 311 318 313 307 304 297 289 284 281 279 281 283 282 280 278 281 284 285 286 288 286 286 287 290 290 287 286 289 292 296 300 302 304
239 240 242 248 253 249 242 241 245 251 252 250 252 261 266 264 263 263 265 271 278 285 290 290 289 287 288 290 296 306 317 320 314 308 303 298 297 298 293 289 289 288 284 282 282 283 282 282 285 285 283 284 286 288 288 286 285 287 292 296 300 303 304
243 242 246 255 260 252 243 241 245 248 247 248 251 258 265 266 265 265 267 271 278 286 291 291 291 293 294 297 302 309 316 318 313 305 297 292 295 302 305 303 299 291 287 287 289 287 283 282 283 283 281 281 283 285 287 286 284 287 292 295 299 302 303
243 243 250 258 261 256 246 244 247 249 253 259 262 264 268 268 267 269 270 271 276 284 291 295 297 297 296 299 304 309 314 316 315 310 302 297 299 303 303 305 305 302 299 297 295 292 289 286 284 282 281 279 281 285 285 284 284 288 291 293 296 300 301
242 245 251 254 257 257 252 250 254 258 263 269 272 275 277 274 276 278 276 275 278 284 291 298 301 298 297 300 304 308 311 312 316 318 314 311 312 307 301 302 308 309 307 304 299 295 293 291 286 282 279 277 282 287 284 281 285 289 291 293 294 297 298
244 246 249 253 260 263 258 256 260 264 266 269 273 278 280 280 284 288 287 287 289 292 297 301 301 298 299 302 304 306 308 310 315 318 317 316 315 308 301 306 312 310 306 304 301 298 296 294 288 283 281 278 283 288 283 282 287 291 291 292 292 293 295
247 249 251 257 265 266 261 260 262 263 265 269 272 276 277 280 286 290 291 294 296 297 300 301 299 298 299 301 303 304 307 311 315 314 314 315 314 308 305 309 313 311 307 306 305 302 298 293 288 287 286 282 282 285 284 285 290 292 291 291 290 291 293
245 250 255 260 263 260 256 258 262 263 264 267 270 272 275 279 285 288 291 295 297 298 300 300 298 297 297 300 302 303 306 310 312 312 313 314 312 309 307 307 310 310 307 308 309 305 299 293 288 288 289 285 284 286 287 290 292 293 292 291 290 290 291
241 248 254 257 256 251 252 257 260 260 261 262 264 268 273 278 282 284 289 294 297 298 298 298 297 296 297 299 302 304 306 309 311 312 312 309 306 306 304 303 306 307 306 307 307 303 299 290 280 282 287 287 287 290 291 293 294 294 293 292 290 289 290
237 242 245 246 243 242 247 251 253 254 255 258 263 270 274 276 277 281 287 293 296 297 297 296 295 295 297 300 303 306 307 310 311 310 307 304 304 305 301 299 303 305 304 303 303 301 295 281 269 274 283 285 288 292 294 295 296 296 295 292 290 288 288
234 236 237 235 232 235 241 245 249 252 256 262 269 274 274 274 277 282 287 292 296 297 296 295 294 295 298 301 304 306 307 310 309 306 304 304 305 304 299 297 302 305 302 300 300 298 289 275 268 271 276 280 287 294 297 299 299 298 295 292 289 288 287
234 233 234 234 234 238 244 248 250 255 262 269 272 272 271 275 281 284 287 292 296 297 296 294 294 297 301 303 304 305 306 307 307 305 304 303 301 300 298 297 301 305 303 298 297 293 283 274 270 267 269 276 285 293 299 301 302 299 296 292 289 288 287
236 234 235 238 243 247 249 251 253 259 266 269 268 268 271 276 280 283 287 292 296 298 297 295 295 298 301 302 303 304 305 306 306 304 302 302 301 300 300 300 301 305 303 298 295 290 280 273 268 263 265 274 286 295 300 302 302 300 297 292 288 286 286
239 239 240 244 248 250 251 253 257 261 264 263 264 269 274 277 280 284 288 292 294 297 297 295 295 298 299 300 301 302 302 304 305 302 299 300 301 301 301 301 301 304 304 297 289 282 275 271 265 260 262 273 288 296 301 303 303 300 296 291 287 285 285
243 244 245 247 249 250 251 255 257 259 259 260 265 271 275 279 283 287 290 293 294 295 296 295 296 298 299 299 299 299 301 303 303 299 297 299 301 302 302 301 301 305 304 294 281 275 273 273 268 260 262 273 288 296 300 303 303 299 294 291 288 287 287
247 248 250 251 251 251 252 254 255 256 259 263 270 275 279 284 288 290 291 292 292 293 294 294 296 298 299 298 296 297 300 301 299 295 294 297 299 301 301 300 301 304 303 291 279 275 274 272 266 262 265 271 282 293 297 300 301 298 293 291 289 288 290
245 247 247 248 248 250 252 254 255 258 262 267 272 277 281 285 287 288 289 289 290 292 292 293 295 298 297 294 293 295 297 296 293 292 293 296 297 298 299 298 300 301 299 291 282 278 277 273 269 271 273 272 278 289 294 298 300 295 288 288 289 291 296
241 243 242 241 246 252 256 258 261 264 267 270 273 277 280 281 283 287 290 291 291 292 292 293 295 297 294 291 290 292 292 289 288 289 292 294 295 296 297 296 297 297 295 293 288 282 281 280 278 279 277 273 276 286 291 296 297 289 284 289 294 297 300
241 243 243 245 252 259 262 264 267 270 271 272 274 276 280 284 286 289 292 293 293 293 294 294 294 294 292 290 289 287 285 284 286 287 290 292 293 295 295 293 293 295 295 294 290 284 281 281 280 280 276 271 275 283 290 293 290 286 291 297 299 300 301
249 250 252 255 260 262 265 267 269 270 272 274 276 280 285 289 291 291 291 292 292 292 292 292 291 290 290 287 284 282 281 282 284 286 288 290 291 293 293 291 293 295 292 289 288 286 285 283 279 277 274 272 276 284 289 289 290 294 299 301 300 300 300
255 256 258 259 260 261 263 266 268 270 274 279 283 286 289 291 293 292 290 290 291 290 289 289 287 284 283 281 280 279 280 282 283 284 286 286 287 289 289 290 292 292 290 290 291 291 292 290 284 281 280 278 281 287 290 292 296 300 301 300 300 299 297
251 253 255 257 260 263 265 267 270 274 278 283 287 290 291 292 292 291 289 288 287 286 285 284 280 277 278 278 279 280 282 282 282 282 283 284 286 287 287 289 291 290 292 295 294 293 294 291 287 286 285 284 286 291 293 296 299 300 300 300 298 295 294
256 257 257 258 261 265 267 269 272 277 283 286 287 288 288 289 291 292 291 287 284 283 281 279 277 278 279 280 281 282 282 281 281 282 284 286 288 287 288 289 289 290 295 297 294 291 291 288 285 284 285 286 289 293 295 298 299 299 299 297 293 292 295
257 257 257 260 265 267 269 272 276 279 282 284 285 284 284 285 288 291 292 289 285 282 280 278 279 281 281 281 281 281 281 282 284 285 285 285 285 286 287 287 287 290 295 296 291 287 285 284 284 285 287 289 292 293 295 297 298 297 294 290 288 291 296
253 256 261 266 269 270 272 274 277 278 279 281 282 282 282 282 284 286 287 286 283 280 278 278 279 280 280 281 281 280 281 285 289 288 284 281 282 285 287 287 288 291 294 293 288 284 282 283 285 288 289 290 291 292 294 295 294 292 289 286 288 293 297
256 261 266 268 269 269 270 273 274 276 277 278 279 279 279 280 281 281 280 279 277 275 275 276 276 277 279 280 281 282 283 286 288 289 286 283 285 289 291 290 291 292 291 288 284 283 283 284 286 288 288 289 290 292 293 292 291 290 289 290 292 295 298